{"data":{"norad_id":64808,"epoch":"2026-05-24T15:38:16.064448Z","epoch_age_seconds":95222,"freshness":"FRESH","line1":"1 64808U 25150U   26144.65157482  .00002715  00000+0  23524-3 0  9997","line2":"2 64808  70.0006 302.9867 0002932 268.2299  91.8525 14.98336068 47896","mean_motion":14.98336068,"eccentricity":0.0002932,"inclination_deg":70.0006,"raan_deg":302.9867,"arg_perigee_deg":268.2299,"mean_anomaly_deg":91.8525,"bstar":0.00023524,"rev_number":4789,"period_min":96.106609909093,"perigee_km":569.99933516449,"apogee_km":574.0749172721,"semimajor_km":6950.1741262183,"source":"CELESTRAK","updated_at":"2026-05-25T13:38:20.568506Z"}}